Weather History for Ainsworth, NE

Change the Weather History Date:

Wednesday, April 24, 2013

  Actual Average Record
Temperature  
Mean Temperature 36 °F -  
Max Temperature 49 °F 58 °F 87 °F (2012)
Min Temperature 23 °F 37 °F 23 °F (2013)
Degree Days  
Heating Degree Days 29    
Moisture  
Dew Point 21 °F    
Average Humidity 56    
Maximum Humidity 77    
Minimum Humidity 33    
Precipitation  
Precipitation 0.00 in - - ()
Sea Level Pressure  
Sea Level Pressure 30.10 in    
Wind  
Wind Speed 12 mph (West)    
Max Wind Speed 28 mph    
Max Gust Speed 36 mph    
Visibility 10 miles    
Events      
Averages and records for this station are not official NWS values.
T = Trace of Precipitation, MM = Missing Value Source: NWS Daily Summary

Daily Weather History Graph

Daily Weather History Graph

Search for Another Location

Airport:

Trip Planner

Search our weather history database for the weather conditions in past years. The results will help you decide how hot, cold, wet, or windy it might be!

Date:

Astronomy

Apr. 24, 2013 Rise Set
Actual Time 6:44 AM CDT 8:32 PM CDT
Civil Twilight 6:14 AM CDT 9:02 PM CDT
Nautical Twilight 5:37 AM CDT 9:39 PM CDT
Astronomical Twilight 4:58 AM CDT 10:19 PM CDT
Moon 7:37 PM CDT (4/24) 5:50 AM CDT (4/24)
Length of Visible Light 14h 48m
Length of Day
13h 48m
Waxing Gibbous, 98% of the Moon is Illuminated
Apr 24
Waxing Gibbous
Apr 25
Full
May 2
Last Quarter
May 9
New
May 17
First Quarter

Hourly Weather History & Observations

Time (CDT) Temp. Windchill Dew Point Humidity Pressure Visibility Wind Dir Wind Speed Gust Speed Precip Events Conditions
12:15 AM 25.2 °F 18.3 °F 18.5 °F 76% 30.15 in 10.0 mi SW 5.8 mph - N/A   Clear
12:35 AM 25.5 °F 18.7 °F 18.7 °F 75% 30.15 in 10.0 mi SW 5.8 mph - N/A   Clear
12:55 AM 24.8 °F 19.1 °F 18.3 °F 76% 30.15 in 10.0 mi SW 4.6 mph - N/A   Clear
1:15 AM 25.3 °F 18.5 °F 18.3 °F 75% 30.15 in 10.0 mi SW 5.8 mph - N/A   Clear
1:35 AM 25.3 °F 18.5 °F 18.0 °F 74% 30.14 in 10.0 mi SW 5.8 mph - N/A   Clear
1:55 AM 24.3 °F 16.3 °F 17.6 °F 76% 30.14 in 10.0 mi SSW 6.9 mph - N/A   Clear
2:15 AM 25.3 °F 17.6 °F 18.1 °F 74% 30.13 in 10.0 mi SSW 6.9 mph - N/A   Clear
2:35 AM 24.8 °F 17.9 °F 17.6 °F 74% 30.12 in 10.0 mi SSW 5.8 mph - N/A   Clear
2:55 AM 23.9 °F 15.0 °F 17.6 °F 77% 30.11 in 10.0 mi SSW 8.1 mph - N/A   Clear
3:15 AM 24.3 °F 15.4 °F 18.0 °F 77% 30.10 in 10.0 mi SSW 8.1 mph - N/A   Clear
3:35 AM 26.4 °F 16.0 °F 18.5 °F 72% 30.09 in 10.0 mi SSW 11.5 mph - N/A   Clear
3:55 AM 26.6 °F 16.8 °F 18.1 °F 70% 30.09 in 10.0 mi SW 10.4 mph - N/A   Clear
4:15 AM 26.6 °F 16.2 °F 18.3 °F 71% 30.09 in 10.0 mi SW 11.5 mph - N/A   Clear
4:35 AM 26.2 °F 16.4 °F 18.5 °F 73% 30.08 in 10.0 mi SW 10.4 mph - N/A   Clear
4:55 AM 26.6 °F 16.2 °F 19.4 °F 74% 30.08 in 10.0 mi SW 11.5 mph - N/A   Clear
5:15 AM 26.6 °F 18.2 °F 19.0 °F 73% 30.08 in 10.0 mi SW 8.1 mph - N/A   Clear
5:35 AM 27.5 °F 17.4 °F 19.6 °F 72% 30.07 in 10.0 mi WSW 11.5 mph - N/A   Clear
5:55 AM 28.2 °F 18.9 °F 19.2 °F 69% 30.07 in 10.0 mi WSW 10.4 mph - N/A   Clear
6:15 AM 27.9 °F 17.8 °F 19.4 °F 71% 30.06 in 10.0 mi WSW 11.5 mph - N/A   Clear
6:35 AM 27.5 °F 18.0 °F 19.4 °F 72% 30.05 in 10.0 mi WSW 10.4 mph - N/A   Clear
6:55 AM 28.0 °F 18.6 °F 19.8 °F 71% 30.05 in 10.0 mi WSW 10.4 mph - N/A   Clear
7:15 AM 28.6 °F 18.7 °F 19.9 °F 70% 30.05 in 10.0 mi WSW 11.5 mph - N/A   Clear
7:35 AM 29.8 °F 20.9 °F 20.3 °F 68% 30.05 in 10.0 mi WSW 10.4 mph - N/A   Clear
7:55 AM 30.4 °F 22.9 °F 21.2 °F 69% 30.04 in 10.0 mi West 8.1 mph - N/A   Clear
8:15 AM 32.0 °F 23.6 °F 22.1 °F 67% 30.04 in 10.0 mi West 10.4 mph - N/A   Clear
8:35 AM 33.3 °F 24.1 °F 23.4 °F 67% 30.04 in 10.0 mi West 12.7 mph - N/A   Clear
8:55 AM 35.6 °F 26.6 °F 23.9 °F 62% 30.04 in 10.0 mi West 13.8 mph - N/A   Clear
9:15 AM 37.8 °F 29.8 °F 24.1 °F 58% 30.05 in 10.0 mi WNW 12.7 mph - N/A   Clear
9:35 AM 40.3 °F 32.2 °F 24.4 °F 53% 30.05 in 10.0 mi WNW 15.0 mph 18.4 mph N/A   Clear
9:55 AM 41.9 °F 34.0 °F 22.8 °F 47% 30.05 in 10.0 mi WNW 16.1 mph 21.9 mph N/A   Clear
10:15 AM 43.5 °F 36.7 °F 22.5 °F 43% 30.05 in 10.0 mi West 13.8 mph - N/A   Clear
10:35 AM 44.2 °F 37.0 °F 21.6 °F 41% 30.06 in 10.0 mi West 16.1 mph - N/A   Clear
10:55 AM 44.8 °F 37.7 °F 22.6 °F 42% 30.07 in 10.0 mi WNW 16.1 mph 27.6 mph N/A   Clear
11:15 AM 45.5 °F 39.2 °F 23.5 °F 42% 30.07 in 10.0 mi WNW 13.8 mph 18.4 mph N/A   Clear
11:35 AM 46.4 °F 40.1 °F 23.0 °F 40% 30.08 in 10.0 mi WNW 15.0 mph 19.6 mph N/A   Clear
11:55 AM 46.8 °F - 24.4 °F 42% 30.08 in 10.0 mi WNW 17.3 mph 26.5 mph N/A   Clear
12:15 PM 47.7 °F - 24.4 °F 40% 30.08 in 10.0 mi WNW 18.4 mph 24.2 mph N/A   Clear
12:35 PM 47.8 °F - 24.8 °F 41% 30.07 in 10.0 mi WNW 17.3 mph 25.3 mph N/A   Clear
12:55 PM 49.3 °F - 24.8 °F 38% 30.07 in 10.0 mi WNW 21.9 mph 28.8 mph N/A   Clear
1:15 PM 48.4 °F - 25.5 °F 41% 30.08 in 10.0 mi NW 23.0 mph 29.9 mph N/A   Scattered Clouds
1:35 PM 48.7 °F - 23.9 °F 38% 30.08 in 10.0 mi WNW 20.7 mph 29.9 mph N/A   Scattered Clouds
1:55 PM 47.8 °F - 24.3 °F 40% 30.08 in 10.0 mi NW 26.5 mph 35.7 mph N/A   Scattered Clouds
2:15 PM 47.7 °F - 25.0 °F 41% 30.08 in 10.0 mi NW 24.2 mph 32.2 mph N/A   Mostly Cloudy
2:35 PM 48.6 °F - 24.1 °F 38% 30.08 in 10.0 mi NW 23.0 mph 32.2 mph N/A   Scattered Clouds
2:55 PM 48.6 °F - 23.7 °F 38% 30.08 in 10.0 mi WNW 24.2 mph 31.1 mph N/A   Scattered Clouds
3:15 PM 49.5 °F - 21.7 °F 34% 30.09 in 10.0 mi NW 27.6 mph 33.4 mph N/A   Mostly Cloudy
3:35 PM 48.6 °F - 20.3 °F 33% 30.09 in 10.0 mi NW 24.2 mph 32.2 mph N/A   Mostly Cloudy
3:55 PM 46.6 °F - 25.7 °F 44% 30.10 in 10.0 mi NW 24.2 mph 31.1 mph N/A   Mostly Cloudy
4:15 PM 45.7 °F 36.7 °F 22.8 °F 41% 30.11 in 10.0 mi NW 26.5 mph 34.5 mph N/A   Overcast
4:35 PM 46.6 °F - 23.7 °F 41% 30.11 in 10.0 mi NW 24.2 mph 32.2 mph N/A   Mostly Cloudy
4:55 PM 45.7 °F 37.4 °F 23.9 °F 42% 30.11 in 10.0 mi NW 23.0 mph 32.2 mph N/A   Scattered Clouds
5:15 PM 45.1 °F 37.1 °F 23.0 °F 42% 30.11 in 10.0 mi NW 20.7 mph 35.7 mph N/A   Mostly Cloudy
5:35 PM 45.3 °F 36.5 °F 21.9 °F 40% 30.12 in 10.0 mi NW 25.3 mph 32.2 mph N/A   Mostly Cloudy
5:55 PM 45.7 °F 37.1 °F 21.2 °F 38% 30.12 in 10.0 mi WNW 24.2 mph 33.4 mph N/A   Overcast
6:15 PM 45.3 °F 36.7 °F 19.9 °F 36% 30.12 in 10.0 mi NW 24.2 mph 29.9 mph N/A   Mostly Cloudy
6:35 PM 45.5 °F 36.5 °F 19.4 °F 35% 30.12 in 10.0 mi NW 26.5 mph 33.4 mph N/A   Scattered Clouds
6:55 PM 45.1 °F 37.6 °F 20.3 °F 37% 30.12 in 10.0 mi NW 18.4 mph 29.9 mph N/A   Scattered Clouds
7:15 PM 45.1 °F 37.9 °F 20.5 °F 38% 30.12 in 10.0 mi NW 17.3 mph 25.3 mph N/A   Scattered Clouds
7:35 PM 44.4 °F 37.9 °F 19.4 °F 37% 30.12 in 10.0 mi WNW 13.8 mph 26.5 mph N/A   Scattered Clouds
7:55 PM 43.9 °F 37.2 °F 20.7 °F 40% 30.12 in 10.0 mi WNW 13.8 mph 19.6 mph N/A   Clear
8:15 PM 42.4 °F 36.5 °F 22.1 °F 44% 30.13 in 10.0 mi WNW 10.4 mph - N/A   Clear
8:35 PM 41.4 °F 35.7 °F 21.2 °F 45% 30.13 in 10.0 mi WNW 9.2 mph - N/A   Clear
8:55 PM 39.7 °F 35.6 °F 22.3 °F 50% 30.13 in 10.0 mi WNW 5.8 mph - N/A   Clear
10:15 PM 34.0 °F 29.8 °F 23.5 °F 66% 30.16 in 10.0 mi WSW 4.6 mph - N/A   Clear
10:35 PM 32.5 °F 25.5 °F 24.4 °F 72% 30.16 in 10.0 mi WSW 8.1 mph - N/A   Clear
10:55 PM 33.6 °F 26.8 °F 23.9 °F 68% 30.17 in 10.0 mi WSW 8.1 mph - N/A   Clear
11:15 PM 32.5 °F 26.2 °F 23.7 °F 70% 30.17 in 10.0 mi WSW 6.9 mph - N/A   Clear
11:35 PM 32.9 °F 27.5 °F 23.9 °F 69% 30.17 in 10.0 mi WSW 5.8 mph - N/A   Clear
11:55 PM 33.1 °F 26.9 °F 23.9 °F 69% 30.16 in 10.0 mi WSW 6.9 mph - N/A   Clear